Location: Anumalkud?ru
(16.4847°N, 80.6636°E)
Time: 11:14:48
(UTC+00:00)

PAYLOAD A - Pass Details

Date: 11 April 2026
Orbit: 689 x 829 km, 98.6° (Epoch: 20 May)

Event Time Altitude Azimuth Distance (km) Brightness Sun altitude
Rises 22:40:24 0° 14° (NNE) 3,091 7.6 -25.1°
Reaches altitude 10° 22:42:40 10° 16° (NNE) 2,159 6.7 -24.6°
Maximum altitude 22:47:22 79° 103° (ESE) 707 3.8 -23.5°
Enters shadow 22:49:22 34° 184° (S) 1,118 4.6 -23.0°
